Galliano, LA

6:37 AM CDT on July 22, 2017 (GMT -0500)
Galliano

Weather History for KGAO - December, 2012

Change the Weather History Date:

Saturday, December 8, 2012

  Actual Average (KHUM) Record (KHUM)
Temperature  
Mean Temperature 62 °F -  
Max Temperature 77 °F 67 °F 83 °F (1943)
Min Temperature 46 °F 45 °F 28 °F (2006)
Degree Days  
Heating Degree Days 4    
Growing Degree Days 12 (Base 50)    
Moisture  
Dew Point 57 °F    
Average Humidity 89    
Maximum Humidity 100    
Minimum Humidity 57    
Precipitation  
Precipitation 0.00 in - - ()
Sea Level Pressure  
Sea Level Pressure 29.96 in    
Wind  
Wind Speed 2 mph (SSE)    
Max Wind Speed 12 mph    
Max Gust Speed 17 mph    
Visibility 6 miles    
Events Fog    
Averages and records for this station are not official NWS values.
T = Trace of Precipitation, MM = Missing Value Source: NWS Daily Summary

Daily Weather History Graph

Daily Weather History Graph

Search for Another Location

Airport or City:

Trip Planner

Search our weather history database for the weather conditions in past years. The results will help you decide how hot, cold, wet, or windy it might be!

Date:

Astronomy

Dec. 08, 2012 Rise Set
Actual Time 6:43 AM CST 5:02 PM CST
Civil Twilight 6:17 AM CST 5:28 PM CST
Nautical Twilight 5:48 AM CST 5:58 PM CST
Astronomical Twilight 5:19 AM CST 6:27 PM CST
Moon 1:27 AM CST (12/8) 1:15 PM CST (12/8)
Length of Visible Light 11h 11m
Length of Day
10h 18m
Waning Crescent, 28% of the Moon is Illuminated
Dec 8
Waning Crescent
Dec 13
New
Dec 19
First Quarter
Dec 28
Full
Jan 4
Last Quarter

Hourly Weather History & Observations

Time (CST) Temp. Dew Point Humidity Pressure Visibility Wind Dir Wind Speed Gust Speed Precip Events Conditions
12:15 AM 55.4 °F 55.4 °F 100% 29.93 in 3.0 mi Calm Calm - N/A   Mist
12:35 AM 55.4 °F 55.4 °F 100% 29.92 in 1.0 mi Calm Calm - N/A   Mist
12:55 AM 53.6 °F 53.6 °F 100% 29.92 in 0.8 mi Calm Calm - N/A   Mist
1:15 AM 51.8 °F 51.8 °F 100% 29.92 in 0.5 mi Calm Calm - N/A Fog Fog
1:35 AM 51.8 °F 51.8 °F 100% 29.92 in 0.5 mi Calm Calm - N/A Fog Fog
1:55 AM 51.8 °F 51.8 °F 100% 29.93 in 0.5 mi Calm Calm - N/A Fog Fog
2:15 AM 50.0 °F 50.0 °F 100% 29.92 in 0.8 mi Calm Calm - N/A   Mist
2:35 AM 50.0 °F 50.0 °F 100% 29.92 in 0.2 mi Calm Calm - N/A Fog Fog
2:55 AM 50.0 °F 50.0 °F 100% 29.92 in 1.0 mi Calm Calm - N/A   Mist
3:15 AM 50.0 °F 50.0 °F 100% 29.92 in 0.5 mi Calm Calm - N/A Fog Fog
3:35 AM 50.0 °F 50.0 °F 100% 29.92 in 0.5 mi Calm Calm - N/A Fog Fog
3:55 AM 50.0 °F 50.0 °F 100% 29.92 in 0.5 mi Calm Calm - N/A Fog Fog
4:15 AM 48.2 °F 48.2 °F 100% 29.93 in 0.5 mi Calm Calm - N/A Fog Fog
4:35 AM 46.4 °F 46.4 °F 100% 29.93 in 0.5 mi Calm Calm - N/A Fog Fog
4:55 AM 48.2 °F 48.2 °F 100% 29.94 in 0.8 mi Calm Calm - N/A   Mist
5:15 AM 46.4 °F 46.4 °F 100% 29.95 in 7.0 mi Calm Calm - N/A   Unknown
5:35 AM 46.4 °F 46.4 °F 100% 29.95 in 2.5 mi Calm Calm - N/A   Mist
5:55 AM 46.4 °F 46.4 °F 100% 29.97 in 0.8 mi Calm Calm - N/A   Mist
6:15 AM 46.4 °F 46.4 °F 100% 29.97 in 2.5 mi Calm Calm - N/A   Mist
6:35 AM 46.4 °F 46.4 °F 100% 29.98 in 0.5 mi Calm Calm - N/A Fog Fog
6:55 AM 46.4 °F 46.4 °F 100% 29.98 in 0.2 mi North - - N/A Fog Fog
7:15 AM 46.4 °F 46.4 °F 100% 29.99 in 0.2 mi Calm Calm - N/A Fog Fog
7:35 AM 48.2 °F 48.2 °F 100% 29.99 in 0.2 mi Calm Calm - N/A Fog Fog
7:55 AM 51.8 °F 51.8 °F 100% 29.99 in 0.5 mi Calm Calm - N/A Fog Fog
8:15 AM 53.6 °F 53.6 °F 100% 29.99 in 10.0 mi Calm Calm - N/A   Unknown
8:35 AM 55.4 °F 55.4 °F 100% 30.00 in 10.0 mi Calm Calm - N/A   Unknown
8:55 AM 55.4 °F 55.4 °F 100% 29.99 in 10.0 mi Calm Calm - N/A   Unknown
9:15 AM 55.4 °F 55.4 °F 100% 30.00 in 10.0 mi Calm Calm - N/A   Unknown
9:35 AM 59.0 °F 59.0 °F 100% 30.00 in 10.0 mi Calm Calm - N/A   Unknown
9:55 AM 71.6 °F 64.4 °F 78% 30.00 in 10.0 mi South 3.5 mph - N/A   Unknown
10:15 AM 71.6 °F 68.0 °F 88% 30.00 in 10.0 mi SSW 5.8 mph - N/A   Unknown
10:35 AM 73.4 °F 66.2 °F 78% 30.00 in 10.0 mi South 8.1 mph - N/A   Clear
10:55 AM 73.4 °F 62.6 °F 69% 29.99 in 10.0 mi South 9.2 mph - N/A   Clear
11:15 AM 75.2 °F 60.8 °F 61% 29.99 in 10.0 mi SSW 8.1 mph - N/A   Unknown
11:35 AM 75.2 °F 60.8 °F 61% 29.98 in 10.0 mi SSE 11.5 mph 17.3 mph N/A   Unknown
11:55 AM 75.2 °F 60.8 °F 61% 29.97 in 10.0 mi South 11.5 mph 16.1 mph N/A   Unknown
12:15 PM 75.2 °F 60.8 °F 61% 29.96 in 10.0 mi South 10.4 mph - N/A   Unknown
12:35 PM 75.2 °F 60.8 °F 61% 29.95 in 10.0 mi South 9.2 mph - N/A   Unknown
12:55 PM 77.0 °F 60.8 °F 57% 29.95 in 10.0 mi South 9.2 mph - N/A   Unknown
1:15 PM 77.0 °F 60.8 °F 57% 29.94 in 10.0 mi SSW 9.2 mph - N/A   Unknown
1:35 PM 77.0 °F 60.8 °F 57% 29.94 in 10.0 mi South 11.5 mph - N/A   Clear
1:55 PM 77.0 °F 60.8 °F 57% 29.94 in 10.0 mi SSW 10.4 mph - N/A   Clear
2:35 PM 75.2 °F 60.8 °F 61% 29.93 in 10.0 mi South 9.2 mph - N/A   Clear
2:55 PM 73.4 °F 62.6 °F 69% 29.93 in 10.0 mi South 8.1 mph - N/A   Clear
3:15 PM 75.2 °F 62.6 °F 65% 29.94 in 10.0 mi South 8.1 mph - N/A   Unknown
3:35 PM 73.4 °F 62.6 °F 69% 29.94 in 10.0 mi SSW 8.1 mph - N/A   Unknown
3:55 PM 73.4 °F 62.6 °F 69% 29.94 in 10.0 mi South 6.9 mph - N/A   Unknown
4:15 PM 71.6 °F 62.6 °F 73% 29.94 in 10.0 mi South 6.9 mph - N/A   Unknown
4:35 PM 71.6 °F 62.6 °F 73% 29.95 in 10.0 mi SSW 4.6 mph - N/A   Unknown
4:55 PM 69.8 °F 62.6 °F 78% 29.95 in 10.0 mi Calm Calm - N/A   Unknown
5:15 PM 68.0 °F 62.6 °F 83% 29.96 in 10.0 mi Calm Calm - N/A   Unknown
5:35 PM 66.2 °F 62.6 °F 88% 29.96 in 10.0 mi Calm Calm - N/A   Unknown
5:55 PM 64.4 °F 62.6 °F 94% 29.96 in 10.0 mi Calm Calm - N/A   Unknown
6:15 PM 62.6 °F 62.6 °F 100% 29.97 in 10.0 mi Calm Calm - N/A   Unknown
6:35 PM 62.6 °F 62.6 °F 100% 29.98 in 10.0 mi Calm Calm - N/A   Unknown
6:55 PM 60.8 °F 60.8 °F 100% 29.98 in 10.0 mi Calm Calm - N/A   Unknown
7:15 PM 60.8 °F 60.8 °F 100% 29.99 in 10.0 mi Calm Calm - N/A   Unknown
7:55 PM 60.8 °F 60.8 °F 100% 29.99 in 5.0 mi East 3.5 mph - N/A   Mist
8:15 PM 60.8 °F 60.8 °F 100% 29.99 in 4.0 mi ESE 4.6 mph - N/A   Mist
8:35 PM 60.8 °F 60.8 °F 100% 29.99 in 4.0 mi East 4.6 mph - N/A   Mist
8:55 PM 59.0 °F 59.0 °F 100% 29.99 in 5.0 mi East 4.6 mph - N/A   Mist
9:15 PM 59.0 °F 59.0 °F 100% 29.99 in 4.0 mi East 4.6 mph - N/A   Mist
9:35 PM 59.0 °F 59.0 °F 100% 29.99 in 5.0 mi East 3.5 mph - N/A   Mist
9:55 PM 57.2 °F 57.2 °F 100% 29.99 in 1.5 mi ESE 4.6 mph - N/A   Mist
10:35 PM 57.2 °F 57.2 °F 100% 29.99 in 4.0 mi East 3.5 mph - N/A   Mist
10:55 PM 57.2 °F 57.2 °F 100% 29.99 in 7.0 mi East 4.6 mph - N/A   Unknown
11:15 PM 55.4 °F 55.4 °F 100% 29.98 in 7.0 mi East 3.5 mph - N/A   Unknown
11:35 PM 55.4 °F 55.4 °F 100% 29.98 in 7.0 mi ESE 3.5 mph - N/A   Unknown
11:55 PM 55.4 °F 55.4 °F 100% 29.98 in 5.0 mi Calm Calm - N/A   Mist